Fort Myers, FL

12:40 AM EDT on August 27, 2016 (GMT -0400)
Page

Weather History for KFMY - February, 2014

Change the Weather History Date:

Thursday, February 6, 2014

  Actual Average Record
Temperature  
Mean Temperature 77 °F 66 °F  
Max Temperature 83 °F 76 °F 86 °F (1989)
Min Temperature 71 °F 55 °F 33 °F (1947)
Degree Days  
Heating Degree Days 0 3  
Month to date heating degree days 0 18  
Since 1 July heating degree days 151 219  
Cooling Degree Days 12 3  
Month to date cooling degree days 68 18  
Year to date cooling degree days 151 101  
Growing Degree Days 26 (Base 50)    
Moisture  
Dew Point 69 °F    
Average Humidity 85    
Maximum Humidity 100    
Minimum Humidity 67    
Precipitation  
Precipitation T in 0.07 in 1.30 in (1895)
Month to date precipitation 0.01 0.42  
Year to date precipitation 2.17 2.36  
Sea Level Pressure  
Sea Level Pressure 30.07 in    
Wind  
Wind Speed 4 mph (NNW)    
Max Wind Speed 13 mph    
Max Gust Speed 17 mph    
Visibility 8 miles    
Events      
T = Trace of Precipitation, MM = Missing Value Source: NWS Daily Summary

Daily Weather History Graph

Daily Weather History Graph

Search for Another Location

Airport or City:

Trip Planner

Search our weather history database for the weather conditions in past years. The results will help you decide how hot, cold, wet, or windy it might be!

Date:

Astronomy

Feb. 06, 2014 Rise Set
Actual Time 7:09 AM EST 6:13 PM EST
Civil Twilight 6:45 AM EST 6:37 PM EST
Nautical Twilight 6:18 AM EST 7:05 PM EST
Astronomical Twilight 5:50 AM EST 7:32 PM EST
Moon 11:46 AM EST (2/6) 12:24 AM EST (2/6)
Length of Visible Light 11h 52m
Length of Day
11h 04m
Waxing Crescent, 49% of the Moon is Illuminated
Feb 6
Waxing Crescent
Feb 6
First Quarter
Feb 14
Full
Feb 22
Last Quarter
Mar 1
New

Hourly Weather History & Observations

Time (EST) Temp. Heat Index Dew Point Humidity Pressure Visibility Wind Dir Wind Speed Gust Speed Precip Events Conditions
12:06 AM 73.0 °F - 72.0 °F 96% 30.06 in 4.0 mi Calm Calm - N/A   Overcast
12:53 AM 73.0 °F - 71.1 °F 93% 30.06 in 4.0 mi Calm Calm - N/A   Overcast
1:24 AM 72.0 °F - 71.1 °F 97% 30.05 in 1.8 mi WNW 3.5 mph - N/A   Overcast
1:41 AM 72.0 °F - 71.1 °F 97% 30.05 in 1.2 mi WSW 4.6 mph - N/A   Overcast
1:53 AM 72.0 °F - 70.0 °F 93% 30.06 in 2.0 mi Calm Calm - N/A   Overcast
2:33 AM 72.0 °F - 71.1 °F 97% 30.04 in 2.5 mi Calm Calm - N/A   Overcast
2:48 AM 71.6 °F - 71.6 °F 100% 30.04 in 3.0 mi Calm Calm - N/A   Overcast
2:53 AM 72.0 °F - 71.1 °F 97% 30.05 in 4.0 mi Calm Calm - N/A   Overcast
3:46 AM 72.0 °F - 70.0 °F 93% 30.05 in 3.0 mi East 3.5 mph - N/A   Overcast
3:53 AM 72.0 °F - 70.0 °F 93% 30.05 in 3.0 mi ESE 4.6 mph - N/A   Overcast
4:53 AM 72.0 °F - 70.0 °F 93% 30.06 in 4.0 mi Calm Calm - N/A   Overcast
5:53 AM 72.0 °F - 70.0 °F 93% 30.06 in 4.0 mi Calm Calm - N/A   Overcast
6:53 AM 72.0 °F - 70.0 °F 93% 30.08 in 5.0 mi Calm Calm - N/A   Overcast
7:53 AM 72.0 °F - 70.0 °F 93% 30.09 in 5.0 mi East 4.6 mph - N/A   Overcast
8:53 AM 72.0 °F - 69.1 °F 91% 30.11 in 5.0 mi ENE 4.6 mph - N/A   Overcast
9:53 AM 73.9 °F - 69.1 °F 85% 30.13 in 8.0 mi NNE 4.6 mph - N/A   Overcast
10:22 AM 73.9 °F - 69.1 °F 85% 30.13 in 8.0 mi ENE 5.8 mph - N/A   Overcast
10:33 AM 75.0 °F - 70.0 °F 84% 30.13 in 8.0 mi NE 5.8 mph - N/A   Overcast
10:53 AM 73.9 °F - 69.1 °F 85% 30.14 in 8.0 mi ENE 5.8 mph - N/A   Overcast
11:53 AM 75.9 °F - 70.0 °F 82% 30.11 in 10.0 mi ESE 6.9 mph - 0.00 in   Scattered Clouds
12:53 PM 80.1 °F 82.9 °F 69.1 °F 69% 30.08 in 10.0 mi South 4.6 mph - N/A   Scattered Clouds
1:32 PM 82.0 °F 84.9 °F 68.0 °F 62% 30.05 in 10.0 mi SSW 4.6 mph - N/A   Mostly Cloudy
1:46 PM 81.0 °F 84.1 °F 69.1 °F 67% 30.04 in 10.0 mi ESE 3.5 mph - N/A   Mostly Cloudy
1:53 PM 81.0 °F 83.8 °F 68.0 °F 65% 30.05 in 10.0 mi Variable 4.6 mph - N/A   Mostly Cloudy
2:34 PM 81.0 °F 83.8 °F 68.0 °F 65% 30.03 in 10.0 mi NNW 5.8 mph - N/A   Mostly Cloudy
2:53 PM 81.0 °F 83.8 °F 68.0 °F 65% 30.02 in 10.0 mi NW 4.6 mph - N/A   Overcast
3:53 PM 81.0 °F 83.8 °F 68.0 °F 65% 30.02 in 10.0 mi Variable 4.6 mph - N/A   Mostly Cloudy
4:07 PM 82.0 °F 84.9 °F 68.0 °F 62% 30.02 in 10.0 mi WSW 9.2 mph - N/A   Mostly Cloudy
4:34 PM 81.0 °F 83.8 °F 68.0 °F 65% 30.02 in 10.0 mi WSW 10.4 mph - N/A   Mostly Cloudy
4:53 PM 81.0 °F 83.8 °F 68.0 °F 65% 30.03 in 10.0 mi WSW 10.4 mph - N/A   Scattered Clouds
5:53 PM 78.1 °F - 66.0 °F 66% 30.05 in 10.0 mi WSW 10.4 mph - N/A   Scattered Clouds
6:53 PM 75.9 °F - 68.0 °F 76% 30.06 in 10.0 mi WSW 6.9 mph - N/A   Overcast
7:53 PM 73.9 °F - 69.1 °F 85% 30.07 in 10.0 mi WNW 4.6 mph - N/A   Mostly Cloudy
8:53 PM 73.0 °F - 69.1 °F 87% 30.10 in 10.0 mi NNW 9.2 mph - N/A   Overcast
9:16 PM 73.0 °F - 69.1 °F 87% 30.09 in 10.0 mi North 5.8 mph - N/A   Overcast
9:30 PM 72.0 °F - 69.1 °F 91% 30.10 in 10.0 mi NNW 5.8 mph - N/A   Overcast
9:37 PM 73.0 °F - 69.1 °F 87% 30.10 in 10.0 mi NNW 4.6 mph - N/A   Overcast
9:49 PM 71.6 °F - 69.8 °F 94% 30.10 in 10.0 mi NW 4.6 mph - N/A   Overcast
9:53 PM 72.0 °F - 69.1 °F 91% 30.11 in 10.0 mi NW 4.6 mph - N/A   Overcast
10:04 PM 72.0 °F - 69.1 °F 91% 30.10 in 10.0 mi NW 4.6 mph - N/A   Mostly Cloudy
10:53 PM 71.1 °F - 69.1 °F 93% 30.10 in 9.0 mi Calm Calm - N/A   Scattered Clouds
11:06 PM 71.1 °F - 69.1 °F 93% 30.10 in 9.0 mi Calm Calm - N/A   Mostly Cloudy
11:13 PM 71.1 °F - 69.1 °F 93% 30.10 in 9.0 mi NW 3.5 mph - N/A   Mostly Cloudy
11:49 PM 71.6 °F - 69.8 °F 94% 30.09 in 10.0 mi NNE 8.1 mph - N/A   Overcast
11:53 PM 72.0 °F - 68.0 °F 87% 30.09 in 10.0 mi NNE 9.2 mph - N/A   Overcast